This demonstration page uses our WeatherBlox Daily Observations layout. Learn more.

Left ArrowRight Arrow

Hourly Observations for November 6, 2022

Temp ( °F °C ) Dew Point ( °F °C ) Humidity (%) Winds ( mph kmh ) Pressure ( in mb ) Visibility ( mi km ) Precip ( " mm )
12:53 am 00:53 Clear 55 12.8 22 -5.6 27 27 WSW 7 11 29.72 1007 10 16 0.00 0.00
1:53 am 01:53 Clear 52 11.1 24 -4.4 33 33 S 10 17 29.73 1007 10 16 0.00 0.00
1:53 am 01:53 Clear 51 10.6 24 -4.4 34 34 SSE 3 6 29.73 1007 10 16 0.00 0.00
2:53 am 02:53 Clear 49 9.4 25 -3.9 39 39 Calm 29.74 1007 10 16 0.00 0.00
3:53 am 03:53 Clear 48 8.9 26 -3.3 42 42 ESE 3 6 29.74 1007 10 16 0.00 0.00
4:53 am 04:53 Clear 46 7.8 27 -2.8 47 47 Calm 29.76 1008 10 16 0.00 0.00
5:53 am 05:53 Clear 43 6.1 27 -2.8 53 53 Calm 29.79 1009 10 16 0.00 0.00
6:53 am 06:53 Clear 42 5.6 26 -3.3 53 53 N 6 9 29.82 1010 10 16 0.00 0.00
7:53 am 07:53 Sunny 44 6.7 27 -2.8 51 51 N 5 7 29.85 1011 10 16 0.00 0.00
8:53 am 08:53 Sunny 55 12.8 27 -2.8 34 34 Calm 29.88 1012 10 16 0.00 0.00
9:53 am 09:53 Sunny 63 17.2 27 -2.8 25 25 SSW 7 11 29.88 1012 10 16 0.00 0.00
10:53 am 10:53 Sunny 70 21.1 26 -3.3 19 19 W 7 11 29.86 1011 10 16 0.00 0.00
11:53 am 11:53 Sunny 75 23.9 27 -2.8 17 17 VRB 3 6 29.85 1011 10 16 0.00 0.00
12:53 pm 12:53 Sunny 78 25.6 27 -2.8 15 15 SW 6 9 29.83 1010 10 16 0.00 0.00
1:53 pm 13:53 Sunny 80 26.7 26 -3.3 14 14 VRB 3 6 29.80 1009 10 16 0.00 0.00
2:53 pm 14:53 Sunny 81 27.2 25 -3.9 13 13 VRB 3 6 29.81 1009 10 16 0.00 0.00
3:53 pm 15:53 Sunny 82 27.8 25 -3.9 12 12 S 3 6 29.81 1009 10 16 0.00 0.00
4:53 pm 16:53 Sunny 81 27.2 26 -3.3 13 13 ESE 7 11 29.82 1010 10 16 0.00 0.00
5:53 pm 17:53 Sunny 76 24.4 28 -2.2 17 17 SE 6 9 29.84 1011 10 16 0.00 0.00
6:53 pm 18:53 Clear 69 20.6 28 -2.2 21 21 ESE 7 11 29.88 1012 10 16 0.00 0.00
7:53 pm 19:53 Clear 64 17.8 30 -1.1 28 28 ESE 6 9 29.91 1013 10 16 0.00 0.00
8:53 pm 20:53 Clear 62 16.7 30 -1.1 30 30 ESE 9 15 29.91 1013 10 16 0.00 0.00
9:53 pm 21:53 Clear 60 15.6 32 0 34 34 ESE 8 13 29.93 1014 10 16 0.00 0.00
10:53 pm 22:53 Clear 59 15 33 0.6 37 37 SE 8 13 29.95 1014 10 16 0.00 0.00
11:53 pm 23:53 Clear 59 15 33 0.6 37 37 SE 9 15 29.94 1014 10 16 0.00 0.00

Powered by AerisWeather